This is the latest recevied weather packets stored in our database for station/object N2ZVN. If no packets are shown the sender has not sent any weather packets the latest 10 day(s).
| Time | Temp. | Humidity | Pressure | Rain* | Wind** | Luminosity | Snow |
|---|---|---|---|---|---|---|---|
| 1777229691 | 13.89° C | 54% | 1022.6 hPa | 0 mm | - | 614 W/m² | - |
| 1777229388 | 13.89° C | 52% | 1022.5 hPa | 0 mm | - | 775 W/m² | - |
| 1777229085 | 13.89° C | 57% | 1022.7 hPa | 0 mm | - | 476 W/m² | - |
| 1777228783 | 13.33° C | 55% | 1022.4 hPa | 0 mm | - | 517 W/m² | - |
| 1777228478 | 13.89° C | 60% | 1022.7 hPa | 0 mm | - | 574 W/m² | - |
| 1777228174 | 13.89° C | 63% | 1022.7 hPa | 0 mm | - | 506 W/m² | - |
| 1777227873 | 13.33° C | 60% | 1022.9 hPa | 0 mm | - | 423 W/m² | - |
| 1777227570 | 13.33° C | 58% | 1022.6 hPa | 0 mm | - | 571 W/m² | - |
| 1777227265 | 13.33° C | 59% | 1022.9 hPa | 0 mm | - | 814 W/m² | - |
| 1777226962 | 13.33° C | 62% | 1022.8 hPa | 0 mm | - | 749 W/m² | - |
| 1777226660 | 13.33° C | 59% | 1022.8 hPa | 0 mm | - | 469 W/m² | - |
| 1777226357 | 13.33° C | 60% | 1022.8 hPa | 0 mm | - | 582 W/m² | - |
| 1777226053 | 13.33° C | 58% | 1022.8 hPa | 0 mm | - | 591 W/m² | - |
| 1777225749 | 13.89° C | 58% | 1022.9 hPa | 0 mm | - | 756 W/m² | - |
| 1777225446 | 13.33° C | 63% | 1022.8 hPa | 0 mm | - | 462 W/m² | - |
| 1777225143 | 13.33° C | 55% | 1023 hPa | 0 mm | - | 425 W/m² | - |
| 1777224839 | 13.33° C | 54% | 1023.1 hPa | 0 mm | - | 797 W/m² | - |
| 1777224535 | 13.33° C | 56% | 1023 hPa | 0 mm | - | 721 W/m² | - |
| 1777224230 | 13.33° C | 57% | 1022.9 hPa | 0 mm | - | 688 W/m² | - |
| 1777223927 | 13.33° C | 59% | 1023.2 hPa | 0 mm | - | 725 W/m² | - |
| 1777223624 | 13.33° C | 58% | 1023 hPa | 0 mm | - | 752 W/m² | - |
| 1777223321 | 13.33° C | 54% | 1023 hPa | 0 mm | - | 889 W/m² | - |
| 1777223019 | 13.33° C | 59% | 1023.1 hPa | 0 mm | - | 823 W/m² | - |
| 1777222716 | 13.33° C | 60% | 1023 hPa | 0 mm | - | 900 W/m² | - |
| 1777222412 | 13.33° C | 60% | 1023.2 hPa | 0 mm | - | 905 W/m² | - |
* Rain latest hour (hover to see other rain measurements)
** Current wind speed in m/s (hover to see current wind gust speed)